STARLINK-6170, 57129

Orbit data source: Space-Track

STARLINK-6170, 57129 is a payload satellite owned by SpaceX/Seattle (US) in LEO that was launched on Fri, 23 Jun 2023 UTC via an FALCON 9 launch vehicle from the Air Force Eastern Test Range (AFETR). Payload-class satellites include a variety of spacecraft equipped with specific instruments for various scientific and technological missions. These include communications satellites like Starlink; space stations such as the ISS; scientific satellites like the Hubble; Earth observation satellites from companies like Planet Labs, Umbra, and HawkEye 360; GPS; miniature CubeSats for education and research; and military/defense satellites.

Loading next visibility...
Identifier
57129, 2023-090AE
Orbit
LEO
Last TLE update
5 hours ago
Origin
Manufacturer
SpaceX/Seattle
Mission
Operational Commercial Communications
Bus & Motor
STARLINK, Unknown motor
Mass
305 kg wet, ~290 kg dry
Launch date (UTC)
2023-06-23 (2 years ago)
Launch vehicle
FALCON 9
Launch site
Air Force Eastern Test Range (AFETR)
Object type
Payload
Rocket body
Debris
Shape & HBR
Box + 1 Pan, 9 m
Radar Cross Section
11.087 m², Large (>1 m²)

Expand to show TLE details & history

TLE from 5 hours ago
0 STARLINK-6170
1 57129U 23090AE  25188.22959222 -.00000166  00000-0  27627-5 0  9998
2 57129  43.0021 155.9229 0001140 290.1775  69.8944 15.02535148112497
Epoch: 2025-07-07T05:30Z
TLE epoch observation values (Epoch: 2025-07-07T05:30:36.767Z)
Latitude
-0.00008°
Longitude
147.8277°
Altitude
558.589 km
Speed
7.584 km/s
True Right ascension
10h 23m 41s
True Declination
0° 00' 00"
Sunlit
Object was in daylight at epoch
Visualization orbit readout
Latitude
38.8998°
Longitude
-92.74163°
Altitude
562.125 km
Speed
7.585 km/s
Apparent Right ascension
14h 52m 46s
Apparent Declination
2° 39' 43"
Sunlit
Object is in full shadow
Visualization observer readout
Local Sidereal Time
22:50:05
Azimuth
291.872° WNW
Elevation
-20.212°
Doppler factor
1
Orbital elements
Apogee altitude
561.797 km
Perigee altitude
560.215 km
Semi-major axis
6,939.143 km
Eccentricity
0.00011
Inclination
43.0021°
RAAN
155.9229°
Arg. of periapsis
290.1775°
True anomaly
Unknown
Mean anomaly
69.8944°
Eccentric anomaly
Unknown
Mean motion
3.75478 °/min
Orbital period
95.88 mins
BSTAR
0.0000027627
Loading maneuver chart data...
Loading SW <> Apogee altitude chart data...
Loading historical data...
Loading historical data...
Loading historical data...
Loading historical data...
Loading historical data...
Loading historical data...
Loading historical data...

STARLINK-6170 Visibility forecast

Observer location: undefined°, undefined°

Span
Click to sort rows by Start time (UTC) header in descending order
Start Az.
Max El. time (UTC)
Max El. Az.
Max El.
End time (UTC)
End Az.
7 mins2025-07-08 00:50:55.737Z209.886° SW2025-07-08 00:53:55.737Z156.783° SSE28.928°2025-07-08 00:57:55.737Z83.791° E
6 mins2025-07-08 02:31:55.737Z260.769° W2025-07-08 02:34:55.737Z23.46° NE43.708°2025-07-08 02:37:55.737Z70.085° E
6 mins2025-07-08 04:12:55.737Z290.252° WNW2025-07-08 04:15:55.737Z23.28° NE39.04°2025-07-08 04:18:55.737Z79.415° E
6 mins2025-07-08 05:53:55.737Z285.088° WNW2025-07-08 05:56:55.737Z138.17° SSE42.651°2025-07-08 05:59:55.737Z115.552° SE
4 mins2025-07-08 07:34:55.737Z249.609° W2025-07-08 07:36:55.737Z212.284° SW19.46°2025-07-08 07:38:55.737Z177.893° S
|